[[{"header":{"parameterUnit":"m.s-1","parameterCategory":1,"la1":30.2991,"la2":30.254,"lo1":-89.0895,"lo2":-89.0444,"dy":0.0017,"dx":0.0017,"nx":28,"ny":28,"refTime":"2023-08-10T09:00:00:Z","depth":0,"parameterNumber":2,"parameterNumberName":"U-component_of_WINDS"},"data":[0,0,0,0,0,0,0,0,0,0,0,0,0,0,0,0,0,0,0,0,0,0,0,0,0,0,0,0,0,0,0,0,0,0,0,0,0,0,0,0,0,0,0,0,0,0,0,0,0,0,0,0,0,0,0,0,0,0,4.3489,4.349,0,4.3559,4.356,4.3561,4.3534,4.3532,4.3531,4.3529,4.3603,4.3606,4.361,0,0,0,0,0,0,0,0,0,0,0,0,0,4.3336,4.3339,4.3489,4.349,4.3491,4.3559,4.356,4.3561,4.3534,4.3532,4.353,4.3528,4.3602,4.3606,4.361,0,0,0,0,0,0,0,0,0,0,0,0,0,4.3404,4.334,4.3489,4.3486,4.3486,4.3559,4.356,4.3561,4.3535,4.3532,4.353,4.3528,4.3601,4.3606,4.3611,4.3691,0,0,4.3627,4.3629,0,0,0,0,0,0,0,0,4.34,4.3409,4.3486,4.3486,4.3487,4.3535,4.3533,4.3605,4.3535,4.3516,4.3529,4.3526,4.3583,4.3589,4.3608,4.3695,4.3698,4.3627,4.363,4.3632,4.3634,0,0,0,0,0,0,0,4.3395,4.3406,4.3517,4.3487,4.3488,4.3482,4.3489,4.3546,4.3562,4.3518,4.3516,4.3525,4.3583,4.3603,4.3609,4.3699,4.3627,4.3632,4.3635,4.3637,4.3855,4.3858,0,0,0,0,0,0,4.339,4.3403,4.3515,4.3519,4.3437,4.3487,4.3494,4.3522,4.3562,4.3565,4.3527,4.3523,4.3595,4.3603,4.3612,4.3708,4.3632,4.3637,4.364,4.3853,4.3856,4.3859,0,0,0,0,0,0,4.3387,4.34,4.3512,4.346,4.3474,4.3492,4.3523,4.3525,4.3545,4.3568,4.3571,4.3544,4.3593,4.3604,4.3671,4.371,4.364,4.3644,4.385,4.3854,4.3857,4.3902,0,0,0,0,0,0,4.3383,4.3399,4.3429,4.3461,4.3477,4.357,4.3526,4.3528,4.3554,4.355,4.3585,4.3589,4.3592,4.3664,4.3677,4.3716,4.3648,4.3846,4.3851,4.3856,4.3897,4.3907,4.3915,0,0,0,0,0,4.3377,4.344,4.3431,4.3445,4.3515,4.3572,4.3581,4.3583,4.3557,4.3588,4.3603,4.3588,4.3704,4.3671,4.3685,4.3727,4.3844,4.385,4.3856,4.3893,4.3905,4.3915,0,0,0,0,0,0,4.3413,4.3444,4.3435,4.3509,4.3538,4.3568,4.3606,4.3596,4.3634,4.3629,4.363,4.3639,4.3708,4.3724,4.3687,4.3807,4.377,4.3779,4.3793,4.3805,4.3814,4.3808,4.3653,0,0,0,0,0,4.3429,4.3472,4.3498,4.3561,4.3576,4.3589,4.3614,4.3613,4.3643,4.3656,4.3675,4.3706,4.375,4.3778,4.382,4.3899,4.3907,4.3935,4.3944,4.3952,4.396,4.4003,4.4016,4.3879,4.3879,4.3879,0,0,4.3464,4.3486,4.3514,4.3569,4.3591,4.3636,4.3599,4.3649,4.3683,4.3663,4.3727,4.3743,4.3778,4.3852,4.3885,4.3867,4.3999,4.3959,4.3965,4.3969,4.401,4.4023,4.4035,4.3883,4.3882,4.3881,0,0,4.355,4.3571,4.3626,4.3649,4.3683,4.3691,4.3705,4.3736,4.3745,4.3809,4.3796,4.3837,4.3912,4.3937,4.3959,4.4055,4.4043,4.4069,4.4116,4.4159,4.4169,4.4179,4.4213,4.4225,4.4076,4.4076,4.4077,0,4.3589,4.3656,4.3656,4.3707,4.3731,4.3715,4.3771,4.3794,4.384,4.3858,4.3837,4.3931,4.3953,4.4032,4.4055,4.4074,4.409,4.4064,4.4168,4.4177,4.4186,4.4218,4.4231,4.4079,4.4079,4.4079,4.4078,0,4.3702,4.3749,4.3789,4.3833,4.3862,4.3916,4.3925,4.3955,4.3951,4.3962,4.4028,4.4054,4.41,4.4119,4.4116,4.4198,4.4186,4.4167,4.413,4.4202,4.4232,4.4245,4.4083,4.4082,4.4082,4.4081,0,0,4.3812,4.3855,4.387,4.389,4.3926,4.3963,4.4015,4.406,4.4085,4.4118,4.4162,4.4226,4.4208,4.4234,4.4234,4.4271,4.4345,4.4248,4.4249,4.4265,4.4436,4.445,4.4464,4.4338,4.434,4.4342,4.4433,0,4.3901,4.3992,4.3994,4.4078,4.4121,4.4106,4.4152,4.418,4.4192,4.4231,4.4244,4.4288,4.4262,4.4277,4.4313,4.4329,4.438,4.4322,4.4379,4.4381,4.437,4.448,4.4495,4.458,4.4445,4.4447,4.4449,0,4.4016,4.4051,4.4139,4.4169,4.4187,4.4228,4.4269,4.4306,4.4338,4.4344,4.4372,4.4367,4.4421,4.4383,4.4458,4.4419,4.4443,4.4454,4.4457,4.4462,4.4419,4.4488,4.4607,4.462,4.4467,4.4466,4.4465,0,4.4087,4.4157,4.4218,4.4235,4.4272,4.4301,4.4318,4.4347,4.4373,4.441,4.4427,4.4469,4.4492,4.4525,4.4532,4.4504,4.4607,4.457,4.4614,4.4614,4.4636,4.4634,4.476,4.4652,4.4652,4.4652,4.4651,0,4.4185,4.424,4.425,4.4288,4.4349,4.4351,4.4411,4.4426,4.4452,4.4492,4.4483,4.4522,4.4529,4.4569,4.4575,4.4636,4.4647,4.4653,4.4654,4.4654,4.4653,4.4669,4.4663,4.4655,4.4654,4.4654,4.4653,0,4.4274,4.4284,4.435,4.4379,4.4388,4.4431,4.4456,4.4493,4.4503,4.4555,4.4567,4.4584,4.4631,4.4641,4.4698,4.4701,4.4774,4.4769,4.4763,4.4762,4.4806,4.4801,4.4946,4.4964,4.4845,4.4846,4.4847,0,4.4336,4.4378,4.4411,4.4437,4.4455,4.4498,4.4524,4.4528,4.4557,4.4595,4.4627,4.4673,4.471,4.4786,4.4804,4.4847,4.4843,4.4891,4.4849,4.4848,4.4843,4.484,4.4844,4.4898,4.49,4.4901,4.4902,0,4.4445,4.4447,4.4486,4.4526,4.4558,4.459,4.462,4.4643,4.4651,4.4683,4.4731,4.4759,4.4816,4.4862,4.4905,4.4923,4.4914,4.4914,4.4927,4.4927,4.4921,4.4924,4.4784,4.4911,4.491,4.4909,4.4909,4.4908,4.4522,4.4558,4.4587,4.463,4.4653,4.4682,4.4717,4.4732,4.4771,4.4817,4.4817,4.4869,4.49,4.4956,4.4977,4.5018,4.5004,4.5022,4.5026,4.503,4.5034,4.4915,4.5026,4.5026,4.5026,4.5026,4.5026,0,4.463,4.4647,4.4687,4.4729,4.4763,4.4751,4.4784,4.4814,4.4859,4.4888,4.4924,4.4979,4.5023,4.5044,4.5088,4.5117,4.5114,4.5129,4.5126,4.513,4.5045,4.503,4.513,4.513,4.513,4.513,4.513,4.513,4.4689,4.4749,4.4755,4.4827,4.4844,4.4894,4.4914,4.4941,4.4964,4.5025,4.5061,4.5074,4.51,4.5146,4.5186,4.5191,4.5208,4.5224,4.5227,4.5147,4.5136,4.5126,4.5112,4.5228,4.5228,4.5309,4.531,4.531]},{"header":{"parameterUnit":"m.s-1","parameterCategory":1,"la1":30.2991,"la2":30.254,"lo1":-89.0895,"lo2":-89.0444,"dy":0.0017,"dx":0.0017,"nx":28,"ny":28,"refTime":"2023-08-10T09:00:00:Z","depth":0,"parameterNumber":3,"parameterNumberName":"V-component_of_WINDS"},"data":[0,0,0,0,0,0,0,0,0,0,0,0,0,0,0,0,0,0,0,0,0,0,0,0,0,0,0,0,0,0,0,0,0,0,0,0,0,0,0,0,0,0,0,0,0,0,0,0,0,0,0,0,0,0,0,0,0,0,2.1716,2.1715,0,2.1697,2.1697,2.1697,2.1681,2.168,2.168,2.168,2.1661,2.166,2.166,0,0,0,0,0,0,0,0,0,0,0,0,0,2.1735,2.1734,2.1716,2.1715,2.1715,2.1697,2.1697,2.1697,2.1681,2.168,2.168,2.168,2.1661,2.166,2.166,0,0,0,0,0,0,0,0,0,0,0,0,0,2.1722,2.1734,2.1716,2.1705,2.1704,2.1698,2.1697,2.1697,2.1681,2.168,2.168,2.168,2.1661,2.166,2.166,2.1663,0,0,2.1658,2.1658,0,0,0,0,0,0,0,0,2.1723,2.1722,2.1707,2.1706,2.1704,2.1691,2.1697,2.1685,2.1681,2.1689,2.168,2.168,2.1671,2.167,2.1667,2.1662,2.1661,2.1658,2.1658,2.1658,2.1658,0,0,0,0,0,0,0,2.1724,2.1722,2.1708,2.1706,2.1705,2.1701,2.1698,2.1695,2.1682,2.1689,2.1687,2.1686,2.167,2.1667,2.1666,2.166,2.1658,2.1658,2.1658,2.1657,2.1655,2.1655,0,0,0,0,0,0,2.1727,2.1723,2.1709,2.1708,2.1713,2.17,2.1698,2.1696,2.1682,2.168,2.1686,2.1685,2.1668,2.1667,2.1665,2.1667,2.1658,2.1657,2.1657,2.1655,2.1655,2.1655,0,0,0,0,0,0,2.1727,2.1726,2.171,2.1715,2.1713,2.17,2.1698,2.1695,2.1692,2.168,2.1677,2.1685,2.1668,2.1666,2.1663,2.1666,2.1657,2.1657,2.1655,2.1655,2.1655,2.167,0,0,0,0,0,0,2.1728,2.1726,2.1727,2.1715,2.1713,2.1708,2.1698,2.1695,2.1692,2.169,2.1679,2.1676,2.1668,2.1664,2.1663,2.1665,2.1656,2.1654,2.1655,2.1655,2.1669,2.1671,2.1672,0,0,0,0,0,2.1729,2.1732,2.1727,2.1726,2.1714,2.1708,2.1707,2.1697,2.1692,2.1693,2.1685,2.1677,2.1666,2.1664,2.1662,2.1664,2.1654,2.1655,2.1655,2.1669,2.1671,2.1672,0,0,0,0,0,0,2.1744,2.173,2.1725,2.1725,2.1718,2.1706,2.1707,2.1699,2.1694,2.1692,2.168,2.1678,2.1676,2.167,2.1668,2.1666,2.1659,2.1659,2.167,2.1671,2.1673,2.1674,2.1656,0,0,0,0,0,2.1748,2.1745,2.1733,2.1734,2.1731,2.1719,2.1716,2.1709,2.1702,2.1698,2.169,2.1682,2.1677,2.1674,2.1669,2.1668,2.1665,2.1669,2.167,2.1672,2.1672,2.167,2.1672,2.1657,2.1657,2.1657,0,0,2.1755,2.1747,2.1746,2.1737,2.173,2.1727,2.1717,2.1714,2.1711,2.1698,2.1694,2.1688,2.1679,2.1677,2.1675,2.1672,2.1675,2.1672,2.1674,2.1673,2.1671,2.1672,2.1674,2.1658,2.1658,2.1658,0,0,2.1766,2.176,2.176,2.1754,2.1745,2.1737,2.1737,2.1726,2.1721,2.1717,2.1707,2.1703,2.1695,2.1688,2.1683,2.1691,2.1683,2.169,2.1698,2.1696,2.1697,2.1698,2.17,2.1701,2.169,2.169,2.169,0,2.1776,2.1771,2.1761,2.1758,2.1754,2.1742,2.1741,2.1736,2.1725,2.1722,2.1718,2.1707,2.17,2.1695,2.1697,2.1694,2.1693,2.1691,2.1698,2.1699,2.1699,2.1701,2.1702,2.1691,2.1691,2.1691,2.1691,0,2.1783,2.178,2.178,2.1771,2.1767,2.1765,2.1754,2.1751,2.1744,2.1736,2.1732,2.1723,2.1715,2.1714,2.1707,2.1708,2.1706,2.17,2.1693,2.1702,2.1703,2.1704,2.1692,2.1692,2.1692,2.1691,0,0,2.1804,2.1788,2.1788,2.1783,2.1772,2.1769,2.1766,2.1759,2.1756,2.1749,2.1746,2.1738,2.1733,2.1727,2.172,2.1719,2.1724,2.1713,2.1712,2.1714,2.1724,2.1728,2.1729,2.1719,2.1719,2.1719,2.1724,0,2.1812,2.1807,2.1798,2.1796,2.1792,2.178,2.1778,2.177,2.1763,2.1758,2.175,2.1745,2.1738,2.1735,2.1733,2.1724,2.1726,2.1723,2.1715,2.1715,2.1717,2.173,2.1734,2.174,2.1725,2.1725,2.1725,0,2.1822,2.1815,2.1813,2.1801,2.1799,2.1798,2.1789,2.1785,2.1776,2.1771,2.1765,2.1756,2.1752,2.1746,2.1739,2.1738,2.1734,2.1729,2.1729,2.1727,2.172,2.1728,2.1741,2.1742,2.1726,2.1726,2.1726,0,2.1836,2.1827,2.1824,2.182,2.1807,2.1806,2.18,2.179,2.1786,2.1779,2.1776,2.1768,2.1763,2.1757,2.1746,2.1743,2.174,2.1734,2.1735,2.1735,2.1735,2.1735,2.1747,2.1733,2.1733,2.1733,2.1733,0,2.1846,2.1845,2.183,2.1828,2.1826,2.1815,2.1813,2.1806,2.1798,2.1794,2.1783,2.178,2.1766,2.176,2.1752,2.1747,2.1745,2.174,2.1738,2.1741,2.1741,2.1738,2.1737,2.1734,2.1734,2.1734,2.1733,0,2.1862,2.1852,2.1848,2.1835,2.1832,2.1831,2.182,2.1817,2.1809,2.1804,2.1803,2.179,2.1783,2.1771,2.1761,2.1755,2.1752,2.1748,2.1755,2.1753,2.1755,2.1755,2.1765,2.1766,2.1752,2.1752,2.1752,0,2.1869,2.1867,2.1855,2.1852,2.1846,2.1841,2.1837,2.1825,2.1821,2.181,2.1809,2.1801,2.1794,2.1783,2.1772,2.1764,2.1759,2.1764,2.1758,2.1761,2.1759,2.1759,2.1758,2.1765,2.1765,2.1765,2.1765,0,2.1882,2.1877,2.1871,2.1864,2.1859,2.1852,2.1845,2.1843,2.183,2.1825,2.1818,2.1813,2.1802,2.1794,2.1784,2.1777,2.1768,2.1767,2.1767,2.177,2.1774,2.1771,2.1758,2.1767,2.1767,2.1767,2.1767,2.1766,2.1892,2.1891,2.1881,2.1875,2.1869,2.1862,2.1859,2.185,2.1844,2.1835,2.1828,2.1821,2.1811,2.1797,2.179,2.1784,2.1781,2.1781,2.178,2.178,2.1781,2.1775,2.1782,2.1782,2.1782,2.1782,2.1782,0,2.1904,2.1898,2.1892,2.1883,2.1878,2.1871,2.1862,2.1858,2.1853,2.1844,2.1837,2.1829,2.1821,2.1809,2.18,2.1797,2.1793,2.1795,2.1795,2.1793,2.1785,2.1786,2.1798,2.1798,2.1798,2.1798,2.1798,2.1798,2.191,2.1906,2.19,2.1893,2.1886,2.1879,2.1875,2.1868,2.1861,2.1852,2.1846,2.1839,2.1828,2.1818,2.181,2.1807,2.1804,2.1807,2.1802,2.1795,2.1794,2.1792,2.1793,2.1807,2.1807,2.1811,2.1811,2.1811]}]]